Hourly Data Report for November 30, 2019

MUSKOKA
ONTARIO
Current Station Operator: NAVCAN

44°58'29.000" N
79°18'12.000" W
281.90 m
6115529
71532
YQA

Download Data

Hourly Data (November 2019)
Hourly Data Report for November 30, 2019
TIME
LST
Temp Definition
°C
Dew Point Definition
°C
Rel Hum Definition
%
Precip. Amount Definition
mm

Wind Dir Definition
10's deg

Wind Spd Definition
km/h
Visibility Definition
km
Stn Press Definition
kPa
Hmdx Definition


Wind Chill Definition


Weather Definition


00:00 -5.7 -8.1 83 0.0 3 8 16.1 98.89   -9 LegendNANA
01:00 -6.5 -8.2 88 0.0 36 5 16.1 98.92   -9 LegendNANA
02:00 -7.1 -8.8 88 0.0 3 8 16.1 98.92   -11 LegendNANA
03:00 -7.5 -9.1 89 0.0 4 5 16.1 98.86   -10 LegendNANA
04:00 -8.7 -10.3 88 0.0 LegendMM 4 16.1 98.91   -11 LegendNANA
05:00 -9.6 -11.1 89 0.0 3 5 16.1 98.89   -12 LegendNANA
06:00 -10.2 -11.4 91 0.0 3 5 16.1 98.83   -13 LegendNANA
07:00 -10.6 -12.1 89 0.0 4 5 16.1 98.87   -14 LegendNANA
08:00 -10.7 -12.3 88 0.0 LegendMM 4 16.1 98.90   -13 LegendNANA
09:00 -9.9 -11.8 86 0.0 4 5 16.1 98.92   -13 LegendNANA
10:00 -8.8 -12.0 78 0.0 8 5 16.1 98.86   -12 LegendNANA
11:00 -7.2 -12.4 67 0.0 4 8 16.1 98.85   -11 LegendNANA
12:00 -5.1 -13.1 54 0.0 8 11 16.1 98.72   -10 LegendNANA
13:00 -3.0 -12.3 49 0.0 12 11 16.1 98.66   -7 LegendNANA
14:00 -2.5 -13.1 44 0.0 6 5 16.1 98.58   -4 LegendNANA
15:00 -2.5 -13.8 42 0.0 5 9 16.1 98.49   -6 LegendNANA
16:00 -2.8 -13.7 43 0.0 9 9 16.1 98.55   -6 LegendNANA
17:00 -3.5 -13.0 48 0.0 LegendMM 4 16.1 98.53   -5 LegendNANA
18:00 -4.5 -13.1 51 0.0 7 5 16.1 98.52   -7 LegendNANA
19:00 -5.9 -13.0 57 0.0 8 5 16.1 98.49   -8 LegendNANA
20:00 -6.8 -12.7 63 0.0 LegendMM 4 16.1 98.45   -9 LegendNANA
21:00 -7.6 -12.0 71 0.0 7 5 16.1 98.41   -10 LegendNANA
22:00 -7.7 -11.4 75 0.0 7 8 16.1 98.34   -12 LegendNANA
23:00 -8.4 -11.4 79 0.0 9 8 16.1 98.34   -13 LegendNANA

Notes on Data Quality.

Legend

  • E = Estimated
  • M = Missing
  • NA = Not Available*
  • [empty] = Indicates an unobserved value
Date modified: